| time (UTC) | temp F | wind direction | speed knots | gust knots | rain 1hr in | rain 24hr in | rain mn in | humidity % | barometer mb |
| 20260507211542 | 75 | 165 | 4.3 | 6.1 | 0.43 | 0.43 | 0.43 | 90 | 1014.7 |
| 20260507210033 | 75 | 168 | 4.3 | 7.8 | 0.39 | 0.39 | 0.39 | 90 | 1014.6 |
| 20260507204530 | 76 | 151 | 0.9 | 5.2 | 0.24 | 0.24 | 0.24 | 88 | 1014.9 |
| 20260507203027 | 78 | 184 | 2.6 | 9.6 | 0.00 | 0.00 | 0.00 | 87 | 1014.8 |
| 20260507201527 | 82 | 129 | 3.5 | 7.8 | 0.00 | 0.00 | 0.00 | 85 | 1014.7 |
| 20260507200026 | 83 | 293 | 4.3 | 8.7 | 0.00 | 0.00 | 0.00 | 80 | 1014.6 |
| 20260507194526 | 84 | 330 | 7.8 | 13.9 | 0.00 | 0.00 | 0.00 | 80 | 1014.8 |
| 20260507193027 | 84 | 340 | 8.7 | 14.8 | 0.00 | 0.00 | 0.00 | 80 | 1014.7 |
| 20260507191527 | 84 | 280 | 8.7 | 15.6 | 0.00 | 0.00 | 0.00 | 80 | 1014.6 |
| 20260507190024 | 84 | 300 | 7.8 | 13.9 | 0.00 | 0.00 | 0.00 | 80 | 1014.4 |
| 20260507184522 | 84 | 272 | 10.4 | 18.2 | 0.00 | 0.00 | 0.00 | 79 | 1014.6 |
| 20260507183021 | 84 | 267 | 8.7 | 15.6 | 0.00 | 0.00 | 0.00 | 79 | 1014.7 |
| 20260507181519 | 85 | 342 | 7.8 | 14.8 | 0.00 | 0.00 | 0.00 | 77 | 1015.1 |
| 20260507180021 | 85 | 355 | 7.8 | 13.0 | 0.00 | 0.00 | 0.00 | 79 | 1015.3 |
| 20260507174538 | 84 | 319 | 9.6 | 16.5 | 0.00 | 0.00 | 0.00 | 79 | 1015.3 |
| 20260507173022 | 85 | 294 | 8.7 | 14.8 | 0.00 | 0.00 | 0.00 | 76 | 1015.5 |
| 20260507171519 | 85 | 334 | 7.8 | 12.2 | 0.00 | 0.00 | 0.00 | 74 | 1015.7 |
| 20260507170015 | 86 | 329 | 7.8 | 13.0 | 0.00 | 0.00 | 0.00 | 75 | 1015.9 |
| 20260507164514 | 85 | 309 | 6.1 | 11.3 | 0.00 | 0.00 | 0.00 | 75 | 1015.9 |
| 20260507163019 | 86 | 293 | 4.3 | 12.2 | 0.00 | 0.00 | 0.00 | 74 | 1016.2 |
| 20260507161519 | 87 | 34 | 5.2 | 12.2 | 0.00 | 0.00 | 0.00 | 74 | 1016.4 |
| 20260507160015 | 85 | 324 | 4.3 | 10.4 | 0.00 | 0.00 | 0.00 | 76 | 1016.4 |
| 20260507154517 | 84 | 325 | 7.8 | 12.2 | 0.00 | 0.00 | 0.00 | 76 | 1016.6 |
| 20260507153017 | 85 | 292 | 4.3 | 11.3 | 0.00 | 0.00 | 0.00 | 77 | 1016.6 |
| 20260507151511 | 85 | 5 | 7.8 | 12.2 | 0.00 | 0.00 | 0.00 | 76 | 1016.6 |
| 20260507150010 | 86 | 40 | 1.7 | 4.3 | 0.00 | 0.00 | 0.00 | 73 | 1016.8 |
| 20260507144509 | 85 | 28 | 1.7 | 5.2 | 0.00 | 0.00 | 0.00 | 73 | 1016.9 |
| 20260507143009 | 85 | 269 | 3.5 | 6.1 | 0.00 | 0.00 | 0.00 | 73 | 1016.9 |
| 20260507141508 | 85 | 309 | 4.3 | 7.8 | 0.00 | 0.00 | 0.00 | 72 | 1017.1 |
| 20260507140013 | 86 | 342 | 1.7 | 5.2 | 0.00 | 0.00 | 0.00 | 71 | 1017.0 |
| 20260507134502 | 84 | 5 | 1.7 | 5.2 | 0.00 | 0.00 | 0.00 | 73 | 1017.0 |
| 20260507133107 | 84 | 31 | 2.6 | 7.0 | 0.00 | 0.00 | 0.00 | 75 | 1017.0 |
| 20260507131622 | 84 | 57 | 3.5 | 7.8 | 0.00 | 0.00 | 0.00 | 76 | 1016.8 |
| 20260507130108 | 84 | 40 | 0.9 | 4.3 | 0.00 | 0.00 | 0.00 | 77 | 1016.9 |
| 20260507124603 | 84 | 130 | 0.9 | 5.2 | 0.00 | 0.00 | 0.00 | 76 | 1016.8 |
| 20260507123103 | 83 | 72 | 0.0 | 0.0 | 0.00 | 0.00 | 0.00 | 77 | 1016.6 |
| 20260507121554 | 81 | 135 | 0.0 | 0.0 | 0.00 | 0.00 | 0.00 | 79 | 1016.3 |
| 20260507120048 | 80 | 135 | 0.9 | 2.6 | 0.00 | 0.00 | 0.00 | 79 | 1016.1 |
| 20260507114545 | 79 | 136 | 0.0 | 1.7 | 0.00 | 0.00 | 0.00 | 80 | 1015.8 |
| 20260507113104 | 77 | 113 | 0.9 | 1.7 | 0.00 | 0.00 | 0.00 | 82 | 1015.9 |
| 20260507111539 | 74 | 125 | 2.6 | 6.1 | 0.00 | 0.00 | 0.00 | 84 | 1016.1 |
| 20260507110040 | 73 | 130 | 1.7 | 6.1 | 0.00 | 0.00 | 0.00 | 86 | 1016.1 |
| 20260507104535 | 72 | 111 | 2.6 | 4.3 | 0.00 | 0.00 | 0.00 | 87 | 1016.1 |
| 20260507103032 | 72 | 165 | 1.7 | 5.2 | 0.00 | 0.00 | 0.00 | 86 | 1016.0 |
| 20260507101530 | 72 | 101 | 0.9 | 2.6 | 0.00 | 0.00 | 0.00 | 87 | 1015.9 |
| 20260507100042 | 71 | 112 | 1.7 | 3.5 | 0.00 | 0.00 | 0.00 | 87 | 1015.5 |
| 20260507094529 | 71 | 130 | 0.9 | 3.5 | 0.00 | 0.00 | 0.00 | 87 | 1015.2 |
| 20260507093034 | 72 | 121 | 1.7 | 3.5 | 0.00 | 0.00 | 0.00 | 87 | 1015.2 |
| 20260507091533 | 72 | 137 | 1.7 | 6.1 | 0.00 | 0.00 | 0.00 | 87 | 1015.2 |
| 20260507090024 | 72 | 117 | 2.6 | 5.2 | 0.00 | 0.00 | 0.00 | 86 | 1015.3 |
| 20260507084543 | 72 | 103 | 4.3 | 7.0 | 0.00 | 0.00 | 0.00 | 87 | 1015.3 |
| 20260507083025 | 72 | 126 | 1.7 | 4.3 | 0.00 | 0.00 | 0.00 | 87 | 1015.5 |
| 20260507081521 | 73 | 129 | 0.0 | 5.2 | 0.00 | 0.00 | 0.00 | 86 | 1015.4 |
| 20260507080020 | 73 | 103 | 3.5 | 6.1 | 0.00 | 0.00 | 0.00 | 86 | 1015.4 |
| 20260507074519 | 73 | 127 | 0.9 | 7.0 | 0.00 | 0.00 | 0.00 | 86 | 1015.3 |
| 20260507073023 | 73 | 117 | 1.7 | 5.2 | 0.00 | 0.00 | 0.00 | 87 | 1015.3 |
| 20260507071518 | 73 | 134 | 1.7 | 6.1 | 0.00 | 0.00 | 0.00 | 88 | 1015.5 |
| 20260507070021 | 73 | 131 | 2.6 | 5.2 | 0.00 | 0.00 | 0.00 | 88 | 1015.6 |
| 20260507064513 | 73 | 136 | 1.7 | 5.2 | 0.00 | 0.00 | 0.00 | 88 | 1015.7 |
| 20260507063014 | 73 | 153 | 0.9 | 3.5 | 0.00 | 0.00 | 0.00 | 89 | 1015.8 |
| 20260507061513 | 74 | 135 | 2.6 | 5.2 | 0.00 | 0.00 | 0.00 | 89 | 1016.0 |
| 20260507060011 | 74 | 124 | 1.7 | 5.2 | 0.00 | 0.00 | 0.00 | 89 | 1016.1 |
| 20260507054506 | 74 | 133 | 2.6 | 5.2 | 0.00 | 0.00 | 0.00 | 89 | 1016.5 |
| 20260507053005 | 74 | 134 | 2.6 | 6.1 | 0.00 | 0.00 | 0.00 | 89 | 1016.6 |
| 20260507051503 | 74 | 117 | 3.5 | 6.1 | 0.00 | 0.00 | 0.00 | 89 | 1016.7 |
| 20260507050003 | 75 | 108 | 1.7 | 5.2 | 0.00 | 0.00 | 0.00 | 89 | 1017.0 |
| 20260507044600 | 75 | 140 | 0.9 | 4.3 | 0.00 | 0.00 | 0.00 | 89 | 1017.1 |
| 20260507043055 | 75 | 146 | 1.7 | 3.5 | 0.00 | 0.00 | 0.00 | 89 | 1017.4 |
| 20260507041552 | 76 | 150 | 2.6 | 4.3 | 0.00 | 0.00 | 0.00 | 88 | 1017.6 |
| 20260507040051 | 76 | 116 | 0.0 | 0.0 | 0.00 | 0.00 | 0.00 | 88 | 1017.8 |
| 20260507034549 | 76 | 111 | 0.0 | 0.0 | 0.00 | 0.00 | 0.00 | 88 | 1017.9 |
| 20260507033049 | 77 | 123 | 0.0 | 0.0 | 0.00 | 0.00 | 0.00 | 88 | 1017.8 |
| 20260507031552 | 77 | 123 | 0.0 | 0.0 | 0.00 | 0.00 | 0.00 | 87 | 1017.9 |
| 20260507030048 | 77 | 123 | 0.0 | 2.6 | 0.00 | 0.00 | 0.00 | 87 | 1018.1 |
| 20260507024548 | 78 | 121 | 1.7 | 3.5 | 0.00 | 0.00 | 0.00 | 87 | 1017.9 |
| 20260507023046 | 78 | 119 | 1.7 | 3.5 | 0.00 | 0.00 | 0.00 | 86 | 1017.8 |
| 20260507021556 | 78 | 135 | 1.7 | 2.6 | 0.00 | 0.00 | 0.00 | 87 | 1017.7 |
| 20260507020046 | 78 | 136 | 1.7 | 3.5 | 0.00 | 0.00 | 0.00 | 87 | 1017.7 |
| 20260507014544 | 78 | 117 | 1.7 | 3.5 | 0.00 | 0.00 | 0.00 | 87 | 1017.4 |
| 20260507013044 | 78 | 116 | 0.0 | 2.6 | 0.00 | 0.00 | 0.00 | 86 | 1017.3 |
| 20260507011547 | 78 | 115 | 2.6 | 5.2 | 0.00 | 0.00 | 0.00 | 86 | 1017.0 |
| 20260507010045 | 79 | 111 | 0.9 | 2.6 | 0.00 | 0.00 | 0.00 | 86 | 1017.2 |
| 20260507004542 | 81 | 11 | 1.7 | 2.6 | 0.00 | 0.00 | 0.00 | 85 | 1017.0 |
| 20260507003042 | 82 | 9 | 1.7 | 4.3 | 0.00 | 0.00 | 0.00 | 84 | 1017.0 |
| 20260507001542 | 82 | 5 | 1.7 | 3.5 | 0.00 | 0.00 | 0.00 | 82 | 1016.8 |
| 20260507000041 | 82 | 267 | 0.9 | 3.5 | 0.00 | 0.00 | 0.00 | 82 | 1016.8 |
| 20260506234550 | 82 | 252 | 0.9 | 5.2 | 0.00 | 0.00 | 0.00 | 81 | 1016.6 |
| 20260506233041 | 82 | 272 | 1.7 | 5.2 | 0.00 | 0.00 | 0.00 | 81 | 1016.5 |
| 20260506231540 | 83 | 221 | 1.7 | 6.1 | 0.00 | 0.00 | 0.00 | 80 | 1016.3 |
| 20260506230039 | 83 | 221 | 2.6 | 7.0 | 0.00 | 0.00 | 0.00 | 80 | 1016.0 |
| 20260506224541 | 83 | 183 | 2.6 | 9.6 | 0.00 | 0.00 | 0.00 | 79 | 1015.8 |
| 20260506223037 | 84 | 261 | 5.2 | 7.8 | 0.00 | 0.00 | 0.00 | 79 | 1015.6 |
| 20260506221536 | 84 | 228 | 2.6 | 6.1 | 0.00 | 0.00 | 0.00 | 77 | 1015.5 |
| 20260506220037 | 84 | 290 | 1.7 | 7.8 | 0.00 | 0.00 | 0.00 | 78 | 1015.4 |
| 20260506214535 | 84 | 331 | 0.9 | 7.0 | 0.00 | 0.00 | 0.00 | 78 | 1015.3 |
| 20260506213034 | 84 | 319 | 2.6 | 8.7 | 0.00 | 0.00 | 0.00 | 79 | 1015.2 |